Theta_e
327 330 330 330 330 328 329 331 332 333 334 336 336 336 336 334 332 332 333 331 329 332 333 333 333 332 331 331 330 330 331 331 331 331 330 330 330 329 331 332 332 332 330 327 326 327 327 326 326 325 325 326 328 329 328 329 330 331 332 333 333 333 333 332 332 332 333 333 332 331 331 330 330 330 330 330 330 330 330 329 328 327 327 327 327 326
327 330 332 330 328 327 328 329 330 332 334 336 334 334 337 337 334 332 332 331 329 332 333 333 333 333 332 331 331 331 332 331 331 331 331 330 330 330 331 332 333 332 331 330 329 327 328 328 327 327 326 326 327 329 329 329 329 330 331 332 333 333 333 332 332 332 332 332 332 331 331 330 330 330 330 330 329 329 329 329 329 328 327 326 326 327
327 330 331 329 328 328 328 328 330 331 333 337 335 333 336 337 335 334 330 327 327 330 332 333 332 332 331 330 329 329 330 331 330 330 331 330 330 330 331 331 332 333 333 334 332 328 327 328 328 328 328 327 327 328 328 329 329 329 330 331 331 332 332 332 332 332 332 332 332 331 331 330 330 330 330 329 329 329 328 328 328 328 327 326 326 327
327 328 328 326 327 329 330 329 330 332 335 338 336 332 334 336 336 334 330 327 326 328 329 330 331 329 328 328 327 327 327 328 329 329 329 330 331 330 330 331 331 333 334 334 333 330 327 327 327 328 327 327 326 326 326 327 328 329 330 330 330 331 331 332 332 331 331 331 332 331 331 330 330 330 330 330 329 329 328 328 328 327 327 327 326 327
326 327 327 326 327 329 331 332 331 334 336 337 335 332 333 335 335 334 332 328 326 328 328 329 331 330 327 328 326 325 326 325 326 327 327 328 330 330 331 333 332 333 333 333 332 332 327 325 327 327 327 327 326 325 325 325 326 328 330 330 330 330 331 331 331 331 331 331 332 332 331 331 330 330 330 330 329 329 328 327 327 327 326 327 327 327
324 325 326 327 329 330 332 334 333 334 336 336 334 331 332 335 335 333 331 329 330 332 329 328 334 332 328 328 327 325 325 325 325 325 325 326 327 329 331 331 332 333 334 332 330 330 327 325 326 327 327 327 326 326 325 324 324 325 328 330 330 330 330 331 331 331 331 331 332 332 331 331 330 330 329 329 329 328 327 327 326 326 326 326 327 327
324 325 325 326 329 330 331 333 332 332 336 336 333 330 330 331 333 332 330 332 334 333 328 327 332 332 328 327 326 325 325 324 324 325 326 326 326 328 331 330 332 333 333 333 332 330 328 326 326 327 327 327 327 326 326 325 325 324 325 327 329 330 330 330 331 331 331 331 331 331 331 330 330 330 329 329 329 328 327 327 326 326 326 327 327 328
324 324 325 324 326 328 328 331 332 332 335 335 329 328 329 329 331 332 330 332 332 330 328 326 329 332 330 327 325 325 325 323 323 323 326 328 328 329 330 331 332 332 331 333 334 334 331 327 325 326 327 326 326 326 326 325 325 324 324 325 327 329 329 329 330 330 331 330 331 331 331 331 330 330 330 329 329 328 328 327 327 327 326 327 327 327
323 323 324 323 325 327 327 328 331 331 333 332 328 327 327 327 329 330 330 331 330 330 332 329 329 333 330 326 326 325 323 324 323 321 324 329 331 330 329 329 329 329 330 332 334 337 334 327 326 327 326 326 325 325 325 325 325 324 324 324 325 327 328 329 330 330 330 330 330 330 331 331 331 330 330 329 329 328 328 328 327 327 327 327 327 327
324 322 323 322 324 326 325 326 330 332 331 328 327 326 325 326 328 329 332 332 331 332 333 330 328 332 330 326 328 328 324 324 324 323 323 325 328 330 328 329 329 328 331 334 335 337 332 326 327 326 325 324 324 323 323 324 324 324 324 324 324 325 327 329 329 330 330 330 330 330 331 331 331 330 330 330 329 329 328 328 328 328 327 327 327 326
324 322 322 322 323 324 325 327 329 330 329 327 329 329 328 329 329 330 332 332 333 334 332 329 327 330 330 329 328 329 327 325 326 325 325 324 326 329 328 329 330 328 330 335 337 333 327 324 325 324 323 323 322 322 322 322 323 323 323 323 323 324 325 327 329 329 330 330 330 330 330 330 331 331 330 330 330 329 329 328 328 328 328 328 327 327
324 324 323 324 324 324 326 327 326 327 327 329 331 330 329 330 330 329 330 331 334 335 332 328 328 329 331 330 327 327 326 326 327 326 326 326 327 329 329 329 329 328 329 333 338 334 329 327 325 323 323 322 322 322 321 321 321 321 322 321 322 322 323 326 328 329 330 330 330 330 329 330 330 331 330 330 330 329 329 329 329 329 329 328 328 328
326 325 324 324 324 323 325 326 326 326 327 329 329 329 328 329 330 329 330 331 333 333 331 329 329 331 330 327 325 326 325 325 327 326 326 325 325 326 328 327 327 329 330 331 335 334 334 334 327 323 324 323 323 323 322 322 321 321 321 320 321 320 321 323 325 328 329 330 330 330 329 329 329 330 330 330 330 330 329 329 329 329 329 329 329 328
327 325 324 324 323 322 323 325 326 326 327 327 326 326 327 327 329 330 331 332 332 333 333 330 330 333 332 327 325 325 324 324 325 326 327 327 327 327 327 327 329 331 330 331 333 334 337 335 327 323 325 324 323 323 322 321 321 321 321 320 320 320 319 320 323 326 328 329 330 330 329 329 328 329 329 330 330 330 330 330 329 329 329 329 329 329
327 327 326 324 324 323 321 322 324 324 325 324 324 324 324 325 327 329 330 332 332 332 332 331 332 334 333 327 323 323 324 325 324 324 327 328 328 328 328 328 329 330 329 331 334 336 335 330 324 324 325 323 321 321 320 320 319 319 320 320 319 319 319 319 320 323 326 328 329 330 329 329 329 328 328 329 329 330 330 330 329 329 329 329 329 329
325 327 325 322 323 322 321 321 321 322 324 323 324 325 324 324 326 327 329 330 329 329 330 331 332 331 327 323 322 322 325 325 324 325 326 327 327 327 328 330 331 331 331 331 333 335 334 326 323 324 324 321 319 318 318 318 317 317 317 318 318 318 318 318 319 320 322 325 327 329 329 329 329 329 328 328 328 329 329 330 329 329 329 329 329 329
324 326 324 322 322 321 321 321 319 321 324 324 325 326 325 327 328 328 326 325 325 327 328 329 329 326 323 324 324 324 325 324 324 325 325 326 327 326 329 332 333 334 333 332 333 336 334 326 323 323 322 320 317 316 316 315 315 315 314 315 316 316 316 316 317 318 319 322 324 326 328 329 329 329 328 328 328 327 328 329 329 329 329 329 329 329
325 326 323 321 322 322 320 321 320 320 323 324 324 324 323 326 329 327 326 326 326 326 328 329 329 328 327 329 328 325 325 325 324 325 324 325 326 327 330 333 334 335 334 333 334 334 332 325 322 322 320 318 316 315 314 314 314 314 313 313 313 313 314 314 315 316 317 319 321 323 326 327 328 329 328 328 328 327 327 328 328 328 329 329 329 329
326 328 324 320 322 322 319 321 323 322 322 324 324 322 323 327 328 325 325 328 328 327 328 331 330 329 328 328 326 324 324 324 324 324 324 324 324 327 330 333 334 334 333 333 332 332 330 324 320 320 318 316 316 315 315 314 315 314 314 313 312 312 313 312 313 313 314 316 318 320 323 325 327 328 328 328 328 327 327 327 327 328 328 328 328 329
328 328 325 322 321 321 321 321 323 323 322 323 324 322 323 328 328 325 325 328 329 327 327 329 330 329 326 323 322 323 322 322 322 322 323 324 325 327 330 332 334 333 333 333 330 330 329 322 318 318 317 316 316 315 315 315 315 315 315 314 314 313 313 313 313 312 312 313 315 317 320 322 325 327 327 328 328 328 327 327 327 327 327 327 327 328
327 326 326 325 322 322 322 321 321 322 322 322 324 324 324 325 325 326 325 326 327 327 326 327 327 327 324 321 321 322 321 322 322 322 324 324 325 326 329 331 331 331 332 332 328 328 327 320 317 318 316 316 317 317 316 316 316 316 316 315 314 313 313 313 313 313 312 313 313 314 316 319 322 325 326 327 327 327 327 327 327 327 327 327 327 327
323 323 325 325 324 323 321 319 319 320 321 321 322 323 323 322 323 326 326 325 325 325 327 327 326 325 323 320 320 321 320 321 321 322 324 324 324 325 326 326 327 329 331 329 325 326 327 320 317 317 315 316 318 317 316 317 316 317 317 316 315 314 314 314 313 313 312 312 313 313 314 316 319 322 324 326 327 327 327 327 327 327 327 327 327 327
321 323 324 324 323 322 320 319 320 319 319 320 320 321 321 321 322 324 325 325 324 324 324 325 326 325 320 319 320 320 318 319 320 321 322 322 321 321 322 324 327 330 330 326 324 326 324 319 318 318 316 315 317 317 317 317 317 317 317 317 316 315 314 314 314 313 312 312 312 313 314 315 317 320 323 325 326 327 327 327 327 327 327 327 327 327
321 322 323 323 322 321 320 320 321 320 319 320 320 319 321 321 321 321 323 323 323 324 324 325 325 323 319 318 320 319 319 318 319 321 320 321 321 321 321 323 326 329 328 325 325 326 323 318 318 317 315 315 316 317 318 317 316 316 317 317 317 315 315 314 314 313 313 312 312 312 314 315 316 318 321 323 325 326 327 327 327 327 327 327 327 327
320 321 323 324 323 323 322 322 323 322 321 321 321 319 319 321 321 322 322 323 323 324 324 324 324 322 319 320 320 319 319 318 318 320 320 320 323 322 321 323 325 326 327 325 325 327 326 323 320 315 314 315 316 317 318 316 315 315 317 317 317 316 315 315 314 313 313 312 311 311 312 313 315 317 318 320 322 323 325 326 326 327 327 327 327 327
319 322 322 323 324 324 324 323 323 322 321 322 322 321 320 321 322 322 322 323 323 323 324 324 323 321 319 321 321 319 319 319 318 319 319 320 323 324 323 324 325 325 325 325 326 326 325 323 319 315 314 315 316 317 317 315 314 315 317 318 316 316 316 315 314 314 313 312 311 311 311 311 312 314 315 317 318 320 322 324 325 326 326 326 327 327
320 322 320 320 321 322 321 321 321 322 321 321 322 322 322 321 321 322 322 323 322 322 323 323 323 323 322 320 319 319 319 320 318 318 318 320 322 324 323 323 323 324 326 327 326 322 319 319 318 315 313 315 317 318 316 315 314 316 317 317 316 315 315 315 314 313 312 311 311 311 311 310 310 311 313 314 315 316 319 321 323 324 325 326 326 326
320 320 318 318 320 320 320 320 321 320 320 320 321 321 322 321 321 322 322 322 321 321 322 321 322 323 322 319 318 318 318 319 318 317 319 319 319 321 322 321 319 320 322 323 321 319 318 318 318 316 313 314 316 317 315 315 316 317 317 316 315 315 315 314 314 313 312 311 310 311 311 311 310 310 311 312 314 315 316 319 321 323 324 325 326 326
319 319 318 319 319 319 320 321 321 320 319 320 320 320 321 322 322 322 322 321 322 323 321 320 322 323 321 319 318 318 317 318 317 317 317 316 316 317 319 318 317 316 318 319 320 320 320 318 319 318 313 312 314 314 314 315 316 316 315 315 315 315 314 314 313 313 312 311 310 311 311 310 310 309 309 310 312 313 314 316 318 320 322 323 324 324
317 317 317 318 319 319 321 322 321 320 319 319 320 320 321 322 322 322 321 321 322 322 321 321 323 322 320 319 319 317 318 318 316 316 315 314 315 317 318 318 317 316 317 317 318 319 319 319 320 317 311 311 313 313 314 316 316 315 314 314 314 314 314 314 313 312 311 310 310 311 310 310 309 309 308 309 309 310 311 313 315 317 320 321 322 323
315 316 317 317 318 318 319 320 321 321 320 319 319 319 319 320 322 321 320 320 321 322 321 321 322 320 319 318 318 317 317 317 316 315 314 313 314 317 318 318 317 317 316 316 317 319 319 319 320 318 312 311 312 313 314 315 314 314 314 314 314 313 313 313 312 311 310 309 310 310 310 310 310 309 308 308 308 308 309 310 311 312 314 316 318 320
313 315 317 317 318 318 318 319 320 320 320 319 320 319 319 319 320 319 318 318 319 321 321 320 321 320 318 317 317 317 316 315 315 314 313 313 313 314 315 315 315 314 315 316 318 319 319 318 319 319 315 312 313 314 315 314 314 313 313 312 312 311 311 311 310 310 309 309 309 309 309 309 309 308 308 308 308 308 308 308 308 308 309 310 311 314
314 317 318 318 318 318 318 319 319 318 318 318 318 318 318 318 317 317 316 316 317 318 319 319 319 317 315 315 315 314 313 312 312 312 312 312 312 312 311 310 311 311 313 316 315 314 315 315 315 315 313 313 314 314 314 313 312 311 310 309 309 308 308 308 308 308 308 308 308 308 308 308 307 307 307 307 307 307 307 307 307 307 307 308 308 308
315 317 319 318 316 317 318 318 318 318 317 317 316 316 316 316 316 316 315 314 314 314 315 315 314 313 314 315 315 313 312 311 311 311 311 310 311 311 310 310 310 310 311 311 310 311 314 314 313 312 313 313 313 312 311 310 309 308 308 307 306 306 305 305 305 306 306 307 307 307 307 307 307 306 306 306 307 306 306 306 306 306 306 306 306 306
316 316 317 316 315 316 317 317 317 316 315 314 313 314 314 314 314 314 314 312 311 312 313 312 312 312 313 314 314 313 312 311 310 310 309 309 310 310 311 311 310 309 310 311 313 316 316 313 311 310 310 309 308 308 308 308 307 306 305 305 305 305 304 304 304 304 305 305 306 306 306 306 306 306 306 306 306 306 306 306 305 305 305 305 304 304
316 315 315 315 315 315 316 315 315 314 313 312 314 313 312 313 313 313 314 312 311 311 312 312 312 312 312 312 312 312 311 311 310 309 309 312 313 312 312 312 312 313 314 313 313 313 311 308 307 307 306 306 306 306 306 306 304 303 303 304 304 304 303 303 303 304 304 304 305 305 305 305 305 305 305 305 305 305 305 305 305 305 304 304 304 303
315 315 315 314 315 314 314 314 313 312 312 311 311 311 310 311 312 313 313 312 311 311 312 312 312 312 312 312 312 311 311 311 310 309 311 314 315 314 313 311 311 311 310 308 307 307 305 304 305 305 305 305 305 305 305 303 302 301 302 302 302 302 302 302 303 303 303 302 302 302 302 303 303 303 304 304 304 304 304 304 304 304 304 303 303 303
314 315 314 313 314 314 313 312 312 312 311 309 309 311 310 310 312 312 312 311 310 311 312 311 311 311 310 310 311 310 310 310 309 309 312 313 313 312 311 309 306 305 306 305 304 303 303 303 303 303 303 303 303 303 303 302 301 301 301 301 301 301 301 302 302 301 301 300 300 300 300 300 301 301 302 303 303 303 303 303 303 303 303 302 302 302
315 315 313 312 313 313 312 312 312 311 310 309 310 311 311 312 313 312 312 311 310 308 308 308 309 309 309 309 309 309 310 311 310 310 310 310 309 309 310 309 305 303 303 304 303 302 302 302 301 301 301 301 301 301 301 301 300 299 299 299 300 300 300 300 300 300 299 298 298 299 299 299 299 299 299 300 300 301 301 302 302 302 302 302 302 301
314 315 314 312 312 312 312 311 310 309 309 310 311 310 310 312 313 313 312 311 310 310 310 308 307 307 308 308 309 309 311 312 312 310 307 307 306 306 306 306 305 303 303 303 302 301 301 300 299 299 299 300 300 299 299 299 299 298 298 298 298 298 299 298 298 298 297 297 297 298 299 299 298 298 298 298 298 298 298 299 300 301 301 301 301 301
312 313 313 312 312 312 312 311 310 309 309 311 311 310 311 312 312 311 310 310 313 317 317 315 312 311 313 315 314 312 311 310 310 308 307 306 305 303 301 302 303 303 302 303 302 300 300 299 299 299 299 298 298 298 298 298 298 297 297 297 297 297 297 297 296 296 295 296 296 297 298 299 298 298 298 298 298 298 298 297 298 299 300 300 300 300
311 312 312 311 311 311 310 310 310 310 308 311 312 311 310 311 311 309 309 313 317 318 317 318 317 314 314 315 314 312 309 307 307 307 306 305 304 303 301 300 301 302 301 301 300 299 299 299 298 298 298 297 297 297 297 297 297 296 296 296 296 296 296 295 295 294 294 295 295 296 297 298 298 299 299 299 298 298 298 298 297 297 298 298 299 299
310 311 311 311 310 309 309 309 309 309 309 309 311 311 310 310 311 311 313 314 314 314 314 315 313 312 312 311 309 308 307 306 305 306 306 305 304 303 302 300 300 301 300 299 299 299 298 298 297 296 297 297 296 296 296 296 296 296 295 295 295 295 295 294 294 293 293 294 295 296 296 297 297 298 298 299 298 297 298 298 298 297 297 297 297 297
309 309 310 310 309 309 310 308 307 309 311 309 310 310 307 309 313 316 316 314 311 310 311 311 309 309 310 308 307 307 307 305 304 305 306 306 305 303 302 300 299 299 299 298 298 298 297 297 296 296 296 296 296 296 296 296 296 295 295 295 295 294 294 293 293 293 293 293 294 295 296 296 297 297 297 297 297 297 297 297 297 297 297 296 296 295
308 308 310 311 309 308 309 307 306 309 311 311 314 314 310 312 317 319 318 316 312 309 309 310 309 308 308 307 306 306 305 304 304 306 306 306 305 304 302 300 298 297 298 297 297 297 297 296 296 295 295 295 295 295 295 295 295 295 295 294 294 293 293 293 292 292 292 292 292 293 294 296 296 296 296 296 296 296 296 296 296 296 296 296 296 295
308 308 309 310 309 308 307 307 306 307 308 312 317 318 315 316 318 318 317 315 311 309 309 309 309 308 308 307 305 304 303 303 304 305 304 304 305 303 300 298 297 296 296 296 296 296 296 295 295 294 294 294 294 295 295 295 295 295 294 294 293 293 292 292 292 291 291 291 291 291 292 293 294 295 295 295 295 295 295 296 296 296 296 296 295 295
306 307 308 308 308 309 309 308 307 306 307 310 313 314 314 314 314 315 315 312 309 308 308 308 308 308 306 305 304 303 303 303 304 304 304 303 302 301 301 299 296 295 295 295 295 295 295 294 294 294 294 294 294 294 294 294 294 294 294 293 293 292 292 291 291 291 290 290 291 291 291 291 292 293 293 293 294 294 295 295 295 295 295 295 295 295
306 307 308 308 307 307 308 309 310 309 309 311 312 313 312 310 309 309 309 308 306 306 306 307 306 305 304 303 303 303 303 303 303 302 302 300 299 299 300 297 294 293 294 295 294 294 294 294 293 293 293 293 293 294 294 294 294 294 294 293 292 292 291 291 290 290 290 290 290 290 290 291 291 291 291 292 292 293 293 294 295 295 295 295 295 295
306 306 308 309 307 306 306 308 309 310 311 311 311 310 308 305 305 305 305 305 305 304 304 303 302 302 301 301 301 302 302 302 301 300 299 298 298 298 296 294 293 293 294 294 294 293 293 293 293 293 293 293 293 294 294 294 294 294 293 292 292 291 291 290 290 289 289 289 289 289 289 290 290 290 290 290 291 291 292 293 294 294 295 295 295 295
307 306 307 309 309 307 306 306 307 308 309 308 306 305 303 302 303 303 303 303 302 300 299 297 297 298 298 298 298 300 300 300 299 298 297 296 297 295 293 291 292 293 293 293 293 292 292 292 292 292 292 293 293 293 294 294 293 293 292 291 291 290 290 289 289 288 288 288 288 288 288 288 288 289 289 290 290 291 291 292 292 293 294 294 295 295
307 306 306 306 307 306 306 308 309 309 308 305 302 301 300 300 300 300 298 297 297 296 295 295 295 295 296 295 294 295 297 297 296 295 295 295 293 293 292 292 292 292 291 292 292 291 292 292 292 292 293 293 293 293 292 292 291 291 291 290 290 290 289 288 287 287 286 287 287 287 287 287 288 288 288 289 289 290 291 291 292 292 293 293 294 294
Wind_Speed
4 4 5 8 8 12 13 14 13 8 6 3 2 2 6 8 7 7 7 8 11 8 8 10 10 9 10 11 9 8 9 9 8 8 7 7 7 7 7 7 7 7 7 10 15 18 19 19 20 22 26 27 27 27 28 28 28 29 29 29 30 31 31 30 29 30 31 32 31 30 31 32 33 33 32 33 34 34 34 34 33 34 33 32 32 31
4 7 10 12 10 10 12 12 13 13 10 3 2 2 5 7 7 7 6 4 5 4 4 6 8 9 9 10 10 8 8 8 7 7 8 8 7 6 7 8 8 7 7 9 13 17 20 20 21 21 23 26 26 26 27 27 28 29 30 30 30 30 31 32 33 32 33 34 34 34 35 36 34 33 34 35 36 36 35 34 34 34 34 34 34 33
5 7 8 8 6 8 11 12 12 14 11 5 3 3 4 5 6 7 3 5 4 1 2 5 7 7 7 8 10 10 8 7 8 9 9 9 8 7 7 8 8 7 7 8 10 14 18 21 22 22 23 25 26 26 26 26 27 28 29 31 30 30 32 34 34 34 35 36 37 36 35 35 33 32 34 35 34 34 34 35 35 34 34 34 35 35
5 4 3 1 1 7 10 13 13 11 10 6 5 4 4 5 5 4 3 5 4 2 2 4 6 6 6 7 10 11 9 7 8 10 11 10 10 10 9 8 8 8 8 8 8 10 15 19 20 22 25 26 26 26 26 25 26 27 29 30 30 31 33 34 35 36 36 35 35 34 32 31 30 29 30 31 31 32 34 35 35 36 36 35 36 36
5 3 4 2 3 4 7 11 12 10 7 6 6 7 6 4 5 4 1 3 4 2 2 3 5 6 5 8 11 11 11 11 12 12 13 13 11 10 10 8 8 8 8 8 9 9 11 15 18 21 24 25 26 27 27 27 27 27 28 29 31 32 33 33 34 35 35 32 31 31 28 26 26 26 25 28 31 33 34 36 38 38 37 36 36 36
6 5 6 4 2 1 4 8 9 8 7 6 6 8 7 5 6 6 3 3 1 2 4 3 3 4 4 8 11 10 11 12 12 14 15 14 11 9 8 8 8 8 9 10 11 11 10 12 15 17 19 21 24 26 26 27 27 27 27 28 30 32 33 33 33 34 34 33 31 30 29 27 27 27 28 32 34 36 37 37 38 37 37 37 36 36
5 7 8 7 2 2 1 3 5 6 5 4 3 3 6 8 8 7 3 2 2 2 2 5 4 5 2 5 8 7 9 10 9 10 13 12 10 8 7 7 8 8 9 10 11 10 10 11 13 14 15 16 19 22 23 23 24 26 26 27 29 31 33 33 32 32 34 35 33 33 33 33 31 30 31 34 34 34 36 35 34 34 35 36 36 37
8 12 10 11 8 2 2 1 2 4 5 2 2 4 3 3 4 5 5 3 2 1 3 2 3 4 7 5 6 8 10 13 12 9 8 8 8 7 6 7 8 9 9 8 8 9 9 11 13 14 15 15 17 18 19 21 22 23 25 27 28 29 31 32 32 33 34 36 35 34 34 34 34 33 32 31 32 32 32 31 32 33 34 35 36 38
11 16 15 15 11 7 8 5 2 3 4 2 2 5 7 6 5 3 3 3 2 2 3 4 3 4 9 4 6 9 12 14 14 11 9 7 7 7 7 8 9 9 8 7 8 8 9 11 13 14 14 14 15 15 16 19 21 22 23 24 26 29 30 31 32 33 34 36 36 34 34 33 34 34 32 30 30 32 31 30 31 31 33 34 36 38
6 14 17 16 11 9 11 8 4 4 3 3 1 6 7 6 6 6 4 3 4 2 6 7 5 5 10 4 5 7 9 10 11 8 8 8 7 8 8 9 9 7 7 7 5 5 7 9 11 12 12 13 14 14 15 17 19 20 21 22 25 28 29 30 31 31 33 35 35 35 35 35 34 33 32 29 29 30 31 31 31 31 33 34 35 37
4 10 12 11 8 9 9 5 3 6 7 4 4 6 6 6 5 4 3 4 3 4 8 10 9 7 9 4 5 5 5 7 6 4 6 8 8 8 8 8 7 6 6 3 3 4 4 6 9 10 12 14 13 13 14 16 17 19 20 22 23 26 27 28 28 29 31 33 35 37 37 37 36 33 30 29 29 29 30 31 32 32 32 33 34 35
6 8 7 5 6 8 9 5 3 4 7 5 5 4 4 4 3 3 2 2 2 7 7 9 11 9 9 5 2 3 4 4 5 6 6 6 7 6 7 6 6 6 4 4 6 4 4 5 8 10 13 14 13 13 13 15 17 18 20 21 23 24 25 25 26 27 29 32 34 37 37 35 34 31 29 30 30 29 30 31 31 31 31 32 33 34
5 7 7 5 7 12 11 6 3 3 5 5 6 5 2 1 1 0 1 2 4 6 4 5 9 8 10 11 9 10 9 7 5 5 5 4 3 5 6 5 5 4 2 4 5 4 4 5 7 9 12 12 11 11 11 13 14 17 19 19 22 24 23 23 25 27 29 31 34 35 35 34 33 31 30 31 30 30 30 30 30 30 30 31 32 34
4 6 9 7 5 10 12 9 6 5 7 8 7 7 5 4 2 2 3 1 2 4 4 4 7 5 5 8 9 12 14 14 10 7 6 5 6 7 6 5 6 4 1 1 2 3 4 5 6 7 10 10 9 9 9 11 12 15 17 17 20 22 21 21 23 26 28 30 32 33 33 34 33 32 32 32 32 32 31 31 30 30 31 33 34 36
7 5 10 10 6 11 13 12 10 7 8 9 6 5 6 6 4 3 3 1 1 2 4 3 4 3 3 2 5 7 8 10 12 10 8 7 7 7 6 6 5 4 4 3 3 4 4 5 6 5 6 8 9 9 8 10 11 12 15 16 18 20 20 20 21 24 27 29 30 31 32 33 33 33 33 33 34 33 32 32 32 32 33 34 36 37
10 5 9 11 8 16 16 10 9 8 5 5 4 4 5 5 5 1 1 3 2 2 3 3 2 2 3 8 13 11 9 7 5 6 7 8 8 7 5 6 5 5 6 3 2 2 3 6 6 3 3 6 10 11 10 10 11 11 13 15 17 19 18 18 19 22 25 27 28 30 31 33 33 33 33 34 35 34 34 34 34 34 35 35 35 35
8 5 12 12 8 16 16 10 11 8 5 4 5 5 3 2 5 3 1 3 2 3 4 3 4 5 5 11 12 9 9 7 5 5 5 7 7 6 6 6 6 5 5 2 3 3 5 6 5 1 1 5 9 12 12 11 10 11 12 13 16 17 18 18 18 20 23 25 27 29 30 31 32 33 33 34 35 34 34 34 34 35 35 34 34 34
4 4 10 13 11 13 11 10 11 5 3 4 5 6 3 4 2 3 2 3 3 6 5 5 8 5 3 6 6 5 7 7 7 7 6 7 6 6 7 6 5 6 4 3 4 4 3 4 4 3 2 4 7 12 13 11 11 11 11 12 13 15 16 17 17 19 21 23 25 28 29 31 31 32 33 34 34 33 33 33 34 35 34 34 34 32
3 3 5 11 12 11 9 9 7 2 3 2 4 8 6 1 2 4 3 3 5 6 4 4 7 6 6 7 7 8 9 7 7 7 7 8 8 7 7 6 6 5 2 4 2 0 2 5 6 5 5 6 8 13 14 12 13 13 13 13 12 13 14 14 15 16 19 21 24 27 28 30 31 32 32 32 32 32 32 32 33 33 33 34 33 32
3 4 3 7 9 10 8 7 7 5 3 3 3 6 5 2 2 5 4 2 3 5 5 4 5 4 7 8 8 10 10 8 9 8 8 9 7 5 4 5 5 3 4 5 4 4 4 5 7 9 12 12 11 14 15 14 15 15 15 15 14 14 14 14 14 14 16 18 21 25 27 29 29 29 30 31 31 31 32 33 33 33 34 34 33 33
3 3 3 5 7 9 7 7 10 11 7 5 5 6 6 3 1 1 3 2 2 3 4 5 5 3 4 6 8 9 8 9 9 8 8 5 2 5 6 5 4 5 6 5 5 3 3 5 8 13 20 19 16 15 16 15 14 14 16 17 16 16 16 16 17 16 16 16 17 20 25 27 28 28 28 29 30 31 33 34 34 35 34 33 33 34
2 2 4 5 6 8 8 7 9 11 10 9 7 9 9 7 4 2 4 3 2 2 2 3 5 5 3 3 4 7 6 6 4 2 2 2 6 7 6 5 4 5 6 5 3 2 2 4 8 14 20 22 18 16 16 15 14 13 16 18 18 17 17 18 19 18 17 17 16 18 21 24 26 27 28 28 30 32 33 34 34 34 33 33 34 33
3 3 4 4 4 4 2 2 3 6 12 10 6 6 7 6 6 5 4 4 2 2 1 1 2 6 4 2 5 5 5 6 4 4 4 4 5 6 6 5 2 5 5 4 1 2 2 4 7 11 17 21 20 18 17 15 14 13 16 20 19 19 19 19 19 19 19 18 17 18 19 21 24 25 26 28 29 31 32 33 32 32 31 32 33 33
3 3 5 4 2 2 4 4 6 4 5 8 6 7 7 7 8 5 2 2 3 3 3 2 3 7 5 4 6 7 5 7 5 4 6 4 5 4 4 4 2 5 3 2 0 2 2 4 7 10 14 18 20 20 18 16 16 17 20 21 20 20 21 20 20 20 20 19 18 18 18 20 22 23 25 27 29 30 31 31 31 31 31 32 32 32
3 5 7 5 3 2 2 1 2 3 3 6 7 9 8 8 8 4 1 2 1 5 7 5 5 7 4 3 6 6 4 5 5 3 4 2 4 3 3 4 3 3 3 1 3 4 4 5 6 9 13 15 18 20 16 17 22 23 22 21 21 21 21 21 20 20 20 20 20 19 19 19 20 22 25 26 28 30 30 30 30 30 30 31 31 31
4 4 7 7 7 7 6 6 6 5 4 2 4 7 9 10 11 7 4 3 3 7 8 5 5 7 6 6 8 8 6 7 7 6 5 4 4 4 4 3 1 2 1 3 5 5 5 6 7 10 13 14 17 18 16 19 26 26 22 20 21 21 21 20 20 20 21 20 20 21 20 19 19 21 23 24 26 28 29 29 29 29 29 30 30 31
3 2 5 7 7 7 6 5 7 9 7 6 8 11 12 13 13 8 4 6 7 7 6 6 6 8 11 13 12 9 6 8 9 8 6 4 4 5 4 3 3 2 4 5 6 6 8 9 8 9 12 15 17 17 17 22 27 25 20 20 22 21 20 20 20 20 21 20 20 21 21 20 19 20 22 23 23 24 26 27 28 28 28 29 29 30
3 4 9 10 7 5 4 6 10 13 12 14 14 14 13 13 13 10 7 9 8 6 7 9 9 8 13 17 16 10 5 7 9 8 6 5 5 5 6 8 8 7 7 7 7 8 9 9 8 8 11 14 16 17 19 24 24 20 19 22 24 22 19 19 20 21 21 21 20 21 21 21 21 20 21 22 23 23 24 25 26 27 27 27 29 30
4 5 9 10 8 4 4 8 12 13 12 14 14 14 14 14 14 13 12 12 9 7 8 9 9 11 14 16 16 12 8 8 9 8 8 9 8 6 6 8 10 9 9 9 9 8 8 8 8 8 10 14 16 17 19 20 19 18 22 26 26 22 20 22 22 22 21 21 21 22 22 21 22 21 21 21 23 24 24 24 25 26 26 27 29 30
2 3 5 5 5 4 3 5 6 8 9 10 12 13 13 13 14 13 12 12 11 11 11 9 9 11 11 12 15 15 11 8 9 11 12 10 7 7 8 8 9 9 9 8 8 8 8 8 8 8 10 14 15 16 17 18 19 22 26 26 24 22 24 26 24 22 21 21 22 22 22 21 22 23 22 21 23 24 24 24 24 24 26 28 29 30
1 4 5 5 2 3 2 2 2 5 6 5 6 7 7 9 10 9 8 9 10 11 12 11 11 11 10 12 17 17 12 8 11 15 14 9 6 7 8 8 8 8 8 7 8 8 7 7 8 8 9 12 15 17 18 20 22 23 23 23 23 23 24 24 23 23 23 23 23 22 22 22 22 23 23 24 24 24 24 23 23 24 27 29 30 30
2 2 3 5 3 3 5 7 6 4 5 3 3 3 4 6 8 9 9 10 11 11 10 10 10 10 11 12 13 14 12 11 13 14 12 10 6 5 6 7 7 7 7 7 8 7 7 7 8 8 9 13 16 17 18 19 20 21 21 23 24 23 22 21 22 24 24 25 25 24 23 23 23 23 24 25 25 25 24 23 23 23 25 28 30 30
5 3 3 5 5 4 6 8 6 4 4 5 6 8 11 11 11 11 10 10 12 12 9 9 10 11 9 6 7 12 15 15 13 10 8 7 7 8 9 11 10 6 6 8 9 8 8 9 9 9 9 10 11 13 15 17 19 20 20 21 23 23 22 22 22 23 24 25 26 26 26 25 25 25 26 26 26 25 23 23 25 25 25 26 26 27
7 6 4 5 4 4 7 8 6 5 6 7 8 13 17 16 15 14 13 13 14 11 9 8 7 7 5 6 9 13 15 15 13 9 7 5 6 8 10 12 12 10 9 11 11 8 6 6 6 7 8 9 10 13 15 16 17 18 20 21 22 24 24 23 22 22 23 24 25 26 27 27 26 27 27 27 26 25 24 24 26 27 27 26 25 26
7 6 3 3 3 3 5 7 5 6 9 7 6 9 14 16 16 15 14 14 14 12 10 9 9 8 8 9 10 11 13 14 12 10 10 9 7 7 8 10 13 13 11 10 7 5 5 6 8 10 11 11 13 14 14 15 16 18 20 21 22 23 23 23 22 21 21 22 23 25 25 25 26 27 28 27 26 25 25 25 26 27 27 26 26 26
7 5 3 2 3 3 4 5 5 5 3 4 6 7 10 12 11 11 12 13 13 10 9 10 11 11 11 11 10 10 11 11 10 10 9 7 4 4 6 7 7 7 6 5 5 6 7 9 10 11 11 12 13 13 14 15 17 19 20 20 20 21 23 23 22 21 21 21 22 23 24 25 26 27 28 28 27 26 26 26 27 28 26 26 27 26
7 6 3 2 3 4 3 4 3 2 5 7 8 5 7 7 7 8 7 8 8 9 10 11 12 12 11 10 9 9 8 7 9 8 5 5 4 3 2 4 6 6 6 7 8 10 11 12 13 13 13 13 13 13 14 16 18 19 18 18 18 20 22 22 22 22 23 23 23 24 25 25 26 27 28 28 28 28 28 27 28 27 26 26 27 26
5 5 5 4 3 4 4 3 2 2 7 9 5 5 7 7 7 7 4 4 6 9 10 10 10 11 10 9 9 10 6 5 7 5 3 6 6 6 6 6 6 8 9 11 13 15 16 16 15 14 14 14 14 15 15 17 18 18 17 16 17 18 19 20 21 23 25 26 27 27 26 25 25 26 27 27 28 28 29 29 29 28 26 25 26 27
5 3 4 5 3 4 5 4 3 5 8 5 3 4 7 9 9 9 4 6 8 8 8 7 8 10 10 10 11 9 5 5 7 4 3 4 5 6 6 6 7 9 11 12 13 15 16 18 18 16 16 15 16 17 17 17 18 17 16 16 17 17 17 18 20 23 26 28 29 29 28 27 26 25 25 26 27 28 29 30 29 28 26 25 26 27
4 2 3 5 4 4 5 4 3 5 7 4 6 5 6 10 11 9 2 7 6 4 5 8 11 11 10 9 8 6 5 5 5 3 1 1 3 6 6 6 7 8 10 11 11 11 13 16 17 17 18 18 17 18 18 17 18 17 17 17 18 17 18 20 22 24 25 27 28 29 29 29 28 27 26 26 28 29 29 28 28 28 27 27 26 26
2 2 3 5 5 4 5 4 3 5 5 6 8 6 7 10 8 5 6 6 3 4 2 3 4 3 2 2 1 2 4 4 4 4 2 1 4 4 5 5 6 7 9 10 11 11 12 13 14 14 15 17 17 17 17 17 17 17 18 19 19 19 21 23 25 26 27 27 27 28 28 28 28 29 29 28 29 30 29 28 27 27 27 27 27 26
4 3 3 5 4 3 3 2 3 6 4 9 11 8 8 7 3 6 5 1 5 6 5 6 5 3 4 6 5 4 4 2 2 2 1 1 2 1 2 4 4 5 7 10 12 13 13 13 14 14 15 17 18 18 17 16 16 16 18 20 20 22 25 26 27 28 29 29 28 28 28 28 28 28 29 29 29 30 30 29 27 27 26 25 26 26
6 5 4 5 4 3 3 3 2 5 4 10 13 8 6 5 5 5 3 4 3 6 6 5 3 3 5 6 5 5 5 2 1 1 1 2 1 1 2 3 3 4 7 11 13 14 13 12 14 15 15 17 18 18 17 17 18 18 18 20 22 25 27 28 30 31 31 30 30 29 29 29 29 28 28 27 27 27 29 29 28 27 26 25 24 25
5 6 4 4 4 4 4 6 5 2 3 7 9 6 7 7 4 5 5 3 1 4 5 4 3 3 5 7 5 3 2 0 2 3 4 5 4 4 4 4 4 5 7 10 13 15 14 13 15 16 16 15 17 18 18 17 18 19 20 22 26 28 29 30 32 33 33 32 32 32 32 31 30 28 26 25 25 25 26 27 26 26 25 24 23 23
7 6 4 4 5 5 6 9 6 4 5 5 4 4 6 4 3 5 6 5 3 4 4 5 5 4 5 6 5 2 2 1 3 4 5 6 6 6 6 6 6 6 8 10 13 15 16 16 17 18 18 17 16 17 17 17 18 19 21 25 28 29 29 31 32 32 31 32 32 32 33 33 32 30 27 25 24 23 24 25 25 24 24 22 21 21
5 5 4 3 4 4 6 9 6 1 3 5 5 4 4 3 3 5 6 5 5 5 5 6 6 6 5 5 4 2 2 2 3 5 6 6 6 7 6 6 6 7 9 11 13 15 17 18 18 18 20 20 19 18 18 18 18 18 21 25 28 29 28 29 30 30 30 31 32 32 32 32 33 32 30 28 25 23 22 22 22 23 23 21 20 20
2 4 3 2 4 4 4 8 8 6 4 6 5 4 4 4 3 4 5 5 5 5 5 5 6 6 6 5 5 4 4 4 4 5 6 6 6 7 6 6 7 8 9 11 14 16 17 17 17 18 19 22 23 22 20 20 19 18 20 25 28 28 28 27 27 28 30 31 32 32 31 30 31 32 32 31 28 26 24 22 20 21 21 20 19 19
2 5 5 5 6 5 4 4 3 3 2 3 5 3 4 5 5 5 5 5 6 6 5 5 6 6 5 3 3 4 4 4 4 5 6 5 6 7 6 7 8 9 11 13 15 15 16 16 18 19 20 22 25 25 24 23 21 20 23 27 29 30 30 28 26 26 27 29 29 30 29 29 29 30 31 31 29 27 26 24 22 22 22 20 20 20
5 6 5 4 4 6 7 3 3 4 5 4 5 4 5 6 7 7 6 6 6 6 5 4 4 5 4 1 0 0 2 4 4 5 5 6 6 7 7 8 11 13 14 15 15 15 16 17 19 20 20 22 25 27 26 24 23 23 26 28 29 29 28 27 26 25 25 25 26 26 27 27 27 27 28 29 29 28 26 24 22 23 25 25 21 20
6 5 3 3 4 7 8 5 3 1 2 1 4 5 6 6 7 7 6 6 7 6 5 4 3 2 2 1 1 0 3 5 5 5 6 5 6 7 9 11 13 14 14 15 17 17 17 17 18 20 21 22 23 23 22 23 25 26 27 28 28 27 24 24 24 24 23 23 23 24 25 25 25 25 25 25 27 29 29 27 23 20 23 25 23 21
5 6 5 5 5 6 4 4 5 4 1 2 4 6 5 4 7 8 7 6 5 5 5 5 4 4 4 4 3 2 3 4 5 6 6 6 7 10 12 14 14 14 16 18 18 18 18 18 18 18 18 18 19 20 22 25 27 27 27 28 28 25 22 21 22 22 22 23 23 23 24 24 24 24 24 24 24 25 27 29 29 25 22 21 20 20
Wind_Direction
177 161 192 213 204 201 203 205 210 218 217 191 78 304 263 256 235 214 220 194 182 203 220 222 239 242 246 255 247 242 245 236 227 223 220 220 221 227 234 235 233 234 234 235 237 239 240 239 231 223 222 223 223 224 223 222 221 220 221 218 217 219 216 210 208 207 207 206 207 209 212 215 217 217 216 219 221 222 225 227 226 225 224 225 226 226
176 199 208 206 209 207 203 211 213 222 232 184 112 267 264 256 249 239 231 165 154 196 231 231 243 242 244 258 259 249 247 250 248 244 241 235 228 218 220 229 230 228 229 231 235 237 239 241 238 231 225 220 218 222 223 224 225 224 222 220 219 218 215 212 211 208 207 208 209 210 212 215 216 217 217 218 220 222 224 226 226 226 226 226 226 226
184 225 224 196 210 223 208 208 213 221 225 197 173 246 267 243 251 258 212 114 109 169 261 262 264 259 256 263 266 258 247 247 246 248 250 248 246 234 224 227 230 229 227 226 229 232 235 238 238 234 228 223 220 223 226 228 230 228 225 222 220 218 216 216 214 211 211 212 213 214 215 216 216 218 220 220 221 221 224 225 225 227 228 226 225 226
177 227 228 124 284 245 223 209 208 221 227 205 171 203 250 230 220 229 169 147 159 191 275 281 277 274 278 281 279 272 261 253 247 245 247 244 242 240 234 231 229 228 229 228 230 231 233 235 233 230 228 226 224 226 229 231 231 230 227 224 221 220 220 219 216 215 216 216 216 218 220 220 219 220 222 221 221 222 224 225 225 225 226 226 225 225
169 151 126 92 333 261 230 214 207 212 222 214 188 203 235 241 243 254 185 182 181 198 266 314 302 269 244 248 257 262 259 252 248 245 248 245 239 239 240 239 235 234 237 237 238 238 236 233 230 228 228 225 224 227 230 232 232 231 229 226 224 224 223 221 219 218 217 216 215 216 218 219 218 218 218 215 216 220 223 224 224 224 224 224 224 224
192 170 125 122 353 335 204 211 212 211 215 213 199 217 237 243 264 263 198 176 186 239 205 159 289 268 210 228 239 243 245 244 238 233 238 243 241 238 237 240 243 241 239 238 239 241 242 241 239 236 232 223 221 228 233 235 235 233 231 229 227 226 225 224 223 220 216 214 213 211 209 208 208 210 210 210 214 217 220 222 222 222 222 223 222 221
195 178 143 149 164 27 52 205 204 205 204 208 207 247 255 240 243 252 236 179 178 256 212 161 217 269 267 247 253 263 263 258 248 233 232 234 233 228 225 232 235 233 233 233 236 238 240 243 242 242 238 228 227 236 239 238 238 236 233 231 229 228 227 225 224 222 218 215 215 213 211 210 209 210 214 216 219 221 222 223 222 222 222 222 221 219
167 176 173 180 195 223 281 274 146 170 171 185 330 15 17 291 265 260 263 245 193 315 316 197 188 275 278 247 239 264 275 273 269 262 247 226 212 213 221 229 231 233 233 231 231 226 225 229 232 239 242 239 241 246 244 240 240 238 235 232 231 231 229 227 225 222 220 218 217 216 216 216 216 218 220 221 222 224 226 225 223 222 222 221 221 219
161 179 188 190 197 212 224 222 116 100 122 154 321 36 55 27 15 12 298 287 337 5 273 225 151 269 273 229 191 228 244 255 260 257 249 226 201 207 222 233 239 242 238 234 231 216 204 210 222 234 240 242 247 249 248 244 242 240 238 235 233 232 231 230 227 224 222 220 218 218 218 219 222 223 224 224 224 225 225 226 225 223 222 222 223 221
165 180 183 185 192 206 207 200 156 117 116 156 47 40 42 27 30 30 12 2 356 313 242 232 186 238 275 254 177 213 223 239 251 248 244 232 210 205 215 234 244 249 252 245 224 186 174 190 213 231 241 248 252 254 252 249 246 241 239 237 235 234 233 231 229 225 224 222 220 220 220 222 223 224 224 224 225 224 222 223 224 222 222 222 223 224
147 166 171 180 189 193 180 154 141 142 139 124 52 36 23 13 31 29 19 45 15 266 242 234 212 228 272 257 179 208 213 223 233 230 243 233 209 204 216 234 241 242 249 224 132 121 147 193 224 236 246 256 262 263 259 253 249 245 242 241 240 240 238 234 231 228 226 223 221 222 223 224 225 224 222 222 223 222 219 221 222 221 222 222 223 225
132 154 165 175 164 151 131 104 66 111 127 110 79 63 21 355 16 32 36 85 217 249 238 222 215 225 251 251 188 234 241 235 221 212 228 210 182 203 226 235 238 236 226 149 133 146 171 208 233 241 254 266 270 268 263 258 253 250 248 248 247 248 244 238 235 231 228 225 224 226 226 228 229 228 225 225 225 223 221 222 222 221 220 221 222 224
150 167 162 144 149 149 138 125 96 103 129 124 121 122 104 284 293 315 192 174 220 255 265 206 201 212 241 254 262 262 258 259 240 221 235 222 208 243 251 264 277 267 222 128 137 162 185 217 240 251 265 276 278 274 271 267 261 258 256 254 253 254 252 245 239 234 231 228 227 228 229 230 232 232 231 230 230 229 226 226 225 222 220 221 221 223
155 180 163 141 148 161 154 150 162 173 169 167 163 161 171 194 224 227 221 247 242 258 284 225 201 207 232 246 264 265 255 248 240 235 244 241 246 260 262 271 286 290 293 124 163 201 219 243 258 267 274 283 290 288 284 280 274 268 264 262 260 261 259 252 245 238 235 232 231 231 231 232 233 233 233 233 233 233 231 229 229 228 225 225 225 225
175 195 171 163 160 168 175 178 172 155 166 186 181 164 185 194 198 218 212 218 252 276 283 228 201 214 203 255 320 315 289 252 231 229 235 232 239 252 261 262 263 278 282 247 208 216 230 259 281 281 276 296 311 309 298 293 291 283 275 271 268 269 267 259 251 244 239 237 236 234 234 235 235 234 234 235 235 234 233 232 232 232 231 230 230 230
196 208 167 169 163 168 181 182 152 128 152 189 145 147 209 199 175 192 168 141 107 341 291 216 218 276 265 298 305 303 310 305 269 248 236 240 250 249 257 255 231 241 261 238 183 219 258 281 300 294 268 308 326 328 321 311 307 299 290 284 279 279 278 269 260 252 247 243 241 238 237 236 236 236 235 235 235 235 234 234 234 234 235 234 234 234
200 192 164 166 163 174 180 166 159 160 160 163 155 172 209 132 136 151 177 113 102 264 254 212 254 281 281 293 289 262 257 263 272 279 250 251 261 246 242 241 215 228 254 218 171 216 256 287 316 335 267 321 331 333 331 325 320 313 304 297 289 287 286 280 272 263 257 251 247 244 241 240 238 237 237 236 236 236 236 235 236 237 237 237 237 236
183 162 166 168 166 178 177 156 164 175 135 148 172 160 96 35 98 136 189 160 167 237 243 211 233 242 229 269 281 273 268 240 225 244 248 253 256 240 237 224 210 234 239 182 188 218 251 316 1 31 352 337 336 335 335 335 336 333 325 316 304 299 294 289 283 273 266 260 254 251 247 244 242 240 240 239 239 239 238 237 237 238 238 239 238 238
153 124 175 183 170 164 161 156 162 141 86 115 155 153 138 95 182 160 183 193 191 219 234 207 214 209 201 228 252 274 287 279 250 243 238 241 235 226 222 205 214 238 180 136 151 11 16 8 11 4 341 339 341 342 344 345 345 343 340 334 323 318 313 306 298 284 274 267 260 257 254 250 247 244 242 242 241 241 240 240 241 240 240 240 240 240
130 122 188 198 169 152 157 173 178 164 110 65 105 163 171 160 177 179 177 179 195 209 226 218 199 197 211 221 233 248 260 269 269 267 262 250 225 195 168 167 183 167 122 107 65 36 19 1 355 352 349 343 339 343 345 343 342 344 345 341 333 330 328 324 319 307 295 283 269 263 260 256 254 249 246 244 242 242 242 243 243 242 242 241 240 239
97 111 151 171 159 159 178 198 188 174 155 141 152 172 187 179 120 184 185 168 165 188 214 229 228 227 205 201 215 225 232 240 241 248 259 249 160 97 87 91 92 99 101 86 59 17 341 347 353 358 353 342 332 336 339 336 335 338 344 343 337 335 333 331 329 322 314 305 287 273 266 262 259 255 251 248 245 244 244 244 244 243 242 241 240 239
142 124 137 158 169 182 200 199 182 172 166 171 178 178 186 184 155 164 201 187 167 194 195 207 248 256 211 180 224 224 232 250 241 251 300 74 79 64 51 36 48 96 104 93 74 329 333 348 349 356 349 336 327 326 327 328 326 331 343 344 336 333 333 333 333 328 322 315 301 286 276 269 264 260 256 252 249 247 246 245 245 244 243 242 241 240
141 108 137 163 174 178 194 147 127 165 179 186 200 189 184 186 179 183 195 182 173 229 258 103 260 262 237 232 280 265 266 290 326 36 38 48 51 40 22 8 57 124 120 113 110 305 339 338 338 347 339 326 318 314 315 320 319 326 342 341 332 329 330 330 331 330 327 320 308 297 286 276 269 263 259 255 252 251 249 248 248 247 245 244 243 241
83 107 148 144 126 55 23 25 26 28 178 190 207 202 188 191 197 190 151 148 163 191 211 192 238 267 256 226 257 267 273 288 308 57 66 19 350 358 348 315 196 142 126 118 55 301 289 316 327 329 321 313 308 306 307 313 318 328 336 333 327 325 326 328 328 328 326 321 314 305 293 282 274 266 261 259 257 256 255 253 252 249 248 247 246 243
135 160 161 150 148 131 91 97 21 353 225 201 199 198 192 188 192 191 122 109 158 200 204 195 222 255 256 219 260 279 297 296 302 18 58 353 298 283 281 272 221 137 106 19 319 297 289 304 307 300 295 297 300 299 298 313 324 327 325 323 323 322 323 324 324 324 324 320 316 310 299 290 281 269 262 261 260 260 259 258 255 253 251 249 247 245
160 164 167 170 174 174 171 171 175 186 202 193 164 183 194 192 187 188 191 192 204 207 203 198 224 254 281 292 285 291 309 309 307 325 347 334 300 286 275 268 244 121 154 269 271 276 292 298 291 286 283 288 293 289 295 317 321 317 314 316 321 322 321 321 320 321 321 318 316 312 306 299 290 278 268 263 261 261 261 260 258 256 254 252 250 248
137 164 188 196 194 187 184 164 139 137 155 178 182 188 198 203 195 180 173 202 211 211 211 213 223 253 277 276 270 271 288 299 298 303 315 317 312 319 319 302 283 244 241 253 264 288 301 295 288 284 283 286 285 281 296 312 308 304 309 317 322 322 320 319 319 319 318 315 313 312 309 306 300 290 279 270 266 264 262 260 259 257 256 255 252 250
117 182 197 201 210 201 175 154 138 139 168 188 192 195 198 202 200 192 195 208 203 205 228 222 210 233 260 263 264 264 254 266 277 283 292 288 288 312 319 306 296 285 276 276 280 288 290 287 285 280 280 285 281 281 297 303 297 299 312 319 320 319 318 320 319 315 313 310 307 308 309 307 304 298 289 279 272 268 264 261 259 257 256 255 253 251
122 190 201 194 205 209 148 149 150 152 174 186 190 199 200 198 200 202 211 215 201 201 227 221 201 215 241 256 267 271 257 258 272 277 277 277 279 282 277 276 281 282 278 274 273 272 271 277 282 277 279 286 285 289 298 299 298 307 316 316 313 311 315 319 315 309 307 303 300 303 306 304 301 298 293 285 276 270 266 263 259 257 255 253 251 251
112 192 202 179 201 215 115 115 140 147 161 180 189 195 195 197 203 208 215 218 215 220 229 228 223 230 243 261 270 270 268 276 283 277 271 269 267 259 254 256 262 266 269 271 272 271 268 272 275 276 283 288 290 296 302 303 306 310 311 309 306 307 314 315 309 303 299 296 297 301 303 301 298 295 291 286 281 276 271 266 261 257 254 251 250 250
188 187 176 142 171 234 151 143 193 141 130 161 185 180 177 182 192 207 221 220 219 226 228 230 242 251 250 255 262 269 276 280 274 274 277 274 247 233 241 248 251 260 273 279 275 272 270 271 273 278 285 287 292 299 301 303 307 309 308 308 309 313 315 311 305 300 295 294 297 299 299 297 296 293 289 286 283 279 275 270 266 261 257 255 253 251
166 157 151 138 161 222 184 185 207 168 140 183 202 179 185 186 190 201 208 206 205 210 216 220 233 244 240 240 257 272 275 264 259 265 276 285 281 261 259 262 258 256 262 266 270 278 285 280 271 265 268 278 290 299 304 309 314 315 318 320 321 321 319 313 307 301 297 297 298 298 297 295 293 291 289 287 285 283 281 277 271 266 263 260 258 254
164 151 144 152 171 214 187 175 180 160 167 212 210 201 207 211 213 214 213 210 202 195 199 209 218 232 237 230 246 264 267 264 261 259 263 284 305 307 296 291 287 272 249 261 274 282 284 280 276 276 282 294 308 316 318 321 324 326 329 328 324 323 322 319 312 306 301 300 300 299 299 299 296 292 291 291 291 290 287 280 274 271 269 268 265 260
174 167 169 163 163 200 181 151 138 165 206 222 206 199 205 210 211 215 221 221 215 209 215 228 233 236 231 215 226 246 257 262 268 273 276 286 297 297 296 297 298 292 279 283 293 297 292 296 314 333 343 343 336 327 322 324 328 329 327 326 323 324 326 324 319 314 310 306 304 303 303 304 302 299 298 297 296 294 289 283 279 278 277 277 273 266
166 164 173 162 140 159 146 119 136 207 220 227 217 201 206 213 214 218 228 231 229 229 232 241 248 240 228 226 230 242 255 266 279 291 291 283 270 270 281 285 289 293 295 304 320 347 5 13 21 16 4 348 335 332 335 338 336 329 326 327 328 329 330 329 325 324 322 318 315 312 310 310 307 305 304 303 300 295 290 286 284 284 284 283 280 274
157 160 159 150 145 140 123 142 194 233 251 255 254 223 207 212 211 216 237 243 238 235 233 236 242 238 234 239 245 253 265 280 290 286 287 293 270 237 267 288 305 321 337 2 22 28 25 20 19 10 356 346 343 347 350 346 341 335 333 336 336 334 334 334 333 334 334 330 328 325 322 318 313 309 308 306 302 296 291 288 287 287 288 286 284 280
156 158 153 169 172 150 148 185 209 329 315 266 252 220 196 202 191 191 231 252 234 221 225 230 237 243 246 250 256 262 271 288 290 286 315 1 26 60 21 19 34 23 16 27 27 20 17 13 7 360 353 350 350 350 347 343 342 341 339 340 341 338 338 339 340 340 339 335 332 330 327 325 320 315 312 309 305 300 296 294 292 292 291 288 285 283
142 157 156 170 183 141 147 190 177 203 251 251 227 160 166 175 165 156 188 256 237 219 221 226 235 246 253 256 257 261 268 277 274 280 4 17 15 35 39 35 39 27 20 22 16 8 7 4 360 356 353 352 352 350 345 340 342 342 338 340 341 339 341 343 342 339 336 332 331 329 328 327 324 320 316 313 309 305 303 300 297 296 294 289 286 285
82 104 128 155 194 156 157 194 196 210 240 238 142 142 160 158 135 113 122 260 251 225 216 221 233 238 236 241 244 237 231 247 254 267 7 4 9 33 30 14 17 20 20 20 13 5 359 355 351 351 354 353 351 349 345 340 341 341 338 340 342 341 343 343 338 334 331 329 329 330 330 329 325 322 320 316 312 310 307 304 301 299 295 291 288 287
91 104 124 163 199 174 166 195 213 239 245 186 122 102 126 135 120 105 143 260 248 197 197 206 220 232 229 231 239 221 197 218 228 224 246 332 26 35 31 16 4 359 2 5 5 0 352 348 346 346 348 348 345 345 345 341 341 341 340 341 342 344 344 339 332 329 327 327 329 331 332 332 330 328 327 324 321 317 312 307 304 300 296 293 291 289
138 169 161 171 189 188 189 206 241 260 239 164 137 125 116 109 104 135 210 233 161 101 56 145 176 233 221 173 185 177 174 185 183 184 194 90 59 31 16 12 359 351 351 350 348 346 340 339 340 336 336 339 338 341 346 345 343 344 344 343 343 344 341 335 330 329 328 328 330 333 335 336 335 333 332 331 329 325 320 316 310 303 299 296 292 289
164 166 176 176 178 189 187 183 266 275 225 150 146 146 127 114 156 206 207 129 112 108 65 71 91 75 86 97 100 130 144 143 136 130 94 83 107 72 342 354 354 347 344 341 341 340 335 333 334 331 332 337 338 341 347 349 349 349 347 345 344 341 337 333 332 331 329 330 331 333 336 337 337 336 335 334 335 331 327 326 321 312 306 300 294 290
159 155 191 195 174 156 148 153 226 269 219 152 143 143 151 166 200 191 126 49 91 124 104 88 90 91 105 104 95 109 114 90 54 76 306 284 260 285 311 318 322 325 334 336 334 334 331 329 329 328 331 336 338 341 348 352 351 351 349 345 342 340 337 336 335 333 331 331 333 334 336 336 336 338 337 336 337 333 330 330 328 321 314 306 299 294
171 170 189 195 165 140 166 198 209 203 143 136 131 152 193 193 169 142 128 96 119 138 121 121 140 136 121 115 109 112 119 21 301 309 315 309 308 305 300 302 308 317 328 333 331 330 328 325 324 325 329 336 340 342 346 350 349 347 346 345 342 341 339 338 338 336 334 333 333 334 336 336 336 337 337 338 338 333 329 329 328 323 319 312 304 299
203 192 158 164 183 178 196 218 212 132 111 118 118 151 180 168 107 116 125 120 155 180 157 142 154 158 134 127 132 159 183 256 293 295 297 297 299 302 297 290 296 312 324 329 330 329 326 324 324 325 327 332 340 341 341 345 345 343 342 342 342 341 340 339 338 336 334 333 332 333 335 335 335 336 336 336 337 332 328 326 323 318 316 312 305 298
223 193 134 132 195 225 250 247 245 236 114 132 128 131 144 145 137 136 135 142 172 179 159 144 151 156 149 143 146 169 210 250 278 280 277 278 285 291 289 286 300 321 329 331 331 330 327 326 325 325 325 328 334 337 336 338 339 337 337 338 340 339 339 338 337 335 333 332 330 331 333 333 332 333 332 331 332 329 325 322 317 311 308 305 300 293
259 189 160 162 174 185 250 249 242 248 218 158 135 107 96 103 121 132 143 161 158 143 136 139 145 149 153 155 158 178 216 239 265 282 286 288 289 293 297 302 312 322 329 331 330 328 327 327 326 326 325 324 327 331 331 331 332 332 333 336 338 337 335 336 336 334 331 331 329 329 331 330 329 328 327 326 327 325 322 319 313 305 299 296 294 289
204 172 185 213 197 193 232 226 210 276 286 125 127 134 122 106 81 74 89 115 119 122 139 148 147 147 148 156 159 173 220 244 253 275 288 295 298 299 302 306 313 323 328 329 327 327 329 328 325 323 321 320 323 326 326 327 328 329 330 332 335 334 332 331 332 329 327 326 326 326 326 326 324 323 322 321 322 321 318 316 312 303 295 291 288 285
144 160 179 185 195 238 257 235 87 16 359 44 69 88 119 126 114 101 102 106 107 117 132 135 136 136 133 149 217 66 299 283 274 284 294 299 301 302 306 313 319 323 324 325 328 331 330 325 320 316 314 314 317 321 322 323 324 324 325 327 329 329 326 324 324 323 322 321 321 321 322 321 319 318 318 317 318 317 314 311 308 302 297 296 292 286
139 168 168 134 175 237 248 221 172 230 291 55 84 95 113 128 124 113 103 98 99 104 101 76 34 42 67 324 276 358 304 295 298 305 303 299 300 304 311 317 320 321 323 326 328 326 322 318 313 309 307 310 315 319 319 318 318 319 320 323 324 322 319 319 319 318 317 318 318 317 317 316 315 315 315 314 315 316 315 312 309 302 296 296 297 293
171 173 168 173 205 231 233 205 198 199 164 119 119 112 99 97 103 98 87 82 78 70 71 63 25 357 344 326 330 356 320 306 318 325 318 310 310 313 317 322 323 323 324 324 323 319 315 313 310 305 305 312 318 318 314 313 313 314 316 319 320 318 315 317 317 315 315 316 314 313 313 311 310 311 311 311 311 313 313 313 313 309 302 298 298 298